GW1008 Weather Reports


Display with metric or nautical units.
time (UTC)temp
F
wind
direction
speed
MPH
gust
MPH
rain 1hr
in
rain 24hr
in
rain mn
in
humidity
%
barometer
mb
20260901131536 69 298 3.0 14.0 0.00 0.00 0.00 64 1008.4
20260901131017 69 0 1.0 14.0 0.00 0.00 0.00 64 1008.1
20260901130519 68 0 4.0 14.0 0.00 0.00 0.00 62 1008.2
20260901130034 67 312 2.0 15.0 0.00 0.00 0.00 63 1008.1
20260901125517 67 277 7.0 17.0 0.00 0.00 0.00 63 1008.1
20260901125017 66 294 7.0 17.0 0.00 0.00 0.00 65 1007.9
20260901124538 65 291 4.0 15.0 0.00 0.00 0.00 66 1007.9
20260901124017 65 300 2.0 8.0 0.00 0.00 0.00 70 1007.7
20260901123516 65 227 0.0 6.0 0.00 0.00 0.00 74 1007.7
20260901123031 64 0 0.0 6.0 0.00 0.00 0.00 76 1007.8
20260901122515 64 0 0.0 6.0 0.00 0.00 0.00 77 1007.7
20260901122018 64 0 0.0 6.0 0.00 0.00 0.00 77 1007.8
20260901121534 64 0 0.0 7.0 0.00 0.00 0.00 78 1007.8
20260901121017 63 265 0.0 12.0 0.00 0.00 0.00 81 1007.8
20260901120520 63 286 0.0 12.0 0.00 0.00 0.00 78 1007.9
20260901120035 64 265 2.0 15.0 0.00 0.00 0.00 76 1007.7
20260901115517 65 0 3.0 15.0 0.00 0.00 0.00 73 1007.6
20260901115023 66 242 3.0 15.0 0.00 0.00 0.00 68 1007.5
20260901114539 67 256 1.0 10.0 0.00 0.00 0.00 67 1007.4
20260901114016 68 252 1.0 13.0 0.00 0.00 0.00 67 1007.3
20260901113521 67 261 1.0 15.0 0.00 0.00 0.00 70 1007.4
20260901113053 67 321 2.0 15.0 0.00 0.00 0.00 70 1007.3
20260901112516 67 252 1.0 12.0 0.00 0.00 0.00 68 1007.4
20260901112016 67 0 2.0 19.0 0.00 0.00 0.00 69 1007.4
20260901111536 66 0 3.0 19.0 0.00 0.00 0.00 68 1007.4
20260901111018 66 247 6.0 17.0 0.00 0.00 0.00 70 1007.5
20260901110516 65 267 5.0 17.0 0.00 0.00 0.00 71 1007.5
20260901110034 64 259 3.0 14.0 0.00 0.00 0.00 74 1007.5
20260901105519 62 0 1.0 14.0 0.00 0.00 0.00 75 1007.6
20260901105017 61 0 3.0 14.0 0.00 0.00 0.00 75 1007.6
20260901104535 61 0 1.0 13.0 0.00 0.00 0.00 75 1007.6
20260901104018 60 0 1.0 13.0 0.00 0.00 0.00 75 1007.7
20260901103517 60 0 3.0 13.0 0.00 0.00 0.00 75 1007.7
20260901103033 60 248 2.0 13.0 0.00 0.00 0.00 74 1007.5
20260901102522 60 262 5.0 13.0 0.00 0.00 0.00 75 1007.6
20260901102018 60 0 1.0 12.0 0.00 0.00 0.00 75 1007.7
20260901101546 60 0 1.0 12.0 0.00 0.00 0.00 76 1007.6
20260901101017 59 0 1.0 9.0 0.00 0.00 0.00 76 1007.8
20260901100517 59 319 1.0 8.0 0.00 0.00 0.00 77 1007.7
20260901100032 59 0 1.0 7.0 0.00 0.00 0.00 77 1007.8
20260901095519 59 0 0.0 8.0 0.00 0.00 0.00 77 1007.9
20260901095017 59 0 0.0 10.0 0.00 0.00 0.00 77 1008.0
20260901094534 58 234 1.0 10.0 0.00 0.00 0.00 78 1008.0
20260901094016 58 221 1.0 8.0 0.00 0.00 0.00 78 1008.1
20260901093517 58 0 1.0 8.0 0.00 0.00 0.00 78 1008.1
20260901093034 58 229 1.0 8.0 0.00 0.00 0.00 78 1008.1
20260901092515 58 0 0.0 8.0 0.00 0.00 0.00 78 1008.1
20260901092017 58 0 0.0 3.0 0.00 0.00 0.00 79 1008.1
20260901091536 58 0 0.0 6.0 0.00 0.00 0.00 79 1008.1
20260901091018 58 0 0.0 6.0 0.00 0.00 0.00 80 1008.1
20260901090516 57 0 0.0 7.0 0.00 0.00 0.00 79 1008.2
20260901090034 57 0 0.0 7.0 0.00 0.00 0.00 79 1008.1
20260901085515 57 0 0.0 9.0 0.00 0.00 0.00 79 1008.0
20260901085018 57 180 1.0 9.0 0.00 0.00 0.00 79 1008.2
20260901084541 57 0 0.0 5.0 0.00 0.00 0.00 80 1008.0
20260901084018 57 0 0.0 5.0 0.00 0.00 0.00 80 1008.1
20260901083519 56 0 0.0 6.0 0.00 0.00 0.00 80 1008.4
20260901083037 56 0 0.0 6.0 0.00 0.00 0.00 80 1008.5
20260901082516 56 0 0.0 7.0 0.00 0.00 0.00 80 1008.6
20260901082019 56 0 0.0 9.0 0.00 0.00 0.00 80 1008.7
20260901081534 56 191 0.0 9.0 0.00 0.00 0.00 80 1008.7
20260901081018 56 0 1.0 6.0 0.00 0.00 0.00 80 1008.8
20260901080516 56 0 0.0 5.0 0.00 0.00 0.00 80 1008.9
20260901080040 56 0 0.0 6.0 0.00 0.00 0.00 79 1008.9
20260901075515 56 0 0.0 10.0 0.00 0.00 0.00 79 1009.0
20260901075020 56 189 1.0 13.0 0.00 0.00 0.00 79 1009.1
20260901074533 56 0 2.0 13.0 0.00 0.00 0.00 78 1009.1
20260901074018 56 0 2.0 12.0 0.00 0.00 0.00 79 1009.1
20260901073515 55 217 1.0 12.0 0.00 0.00 0.00 80 1009.1
20260901073037 55 278 1.0 12.0 0.00 0.00 0.00 80 1009.1
20260901072518 55 0 1.0 10.0 0.00 0.00 0.00 80 1009.0
20260901072016 55 0 0.0 11.0 0.00 0.00 0.00 81 1009.1
20260901071531 55 249 0.0 11.0 0.00 0.00 0.00 80 1009.2
20260901071016 55 258 0.0 10.0 0.00 0.00 0.00 80 1009.0
20260901070516 55 0 0.0 5.0 0.00 0.00 0.00 81 1009.3
20260901070032 55 0 0.0 3.0 0.00 0.00 0.00 81 1009.3
20260901065518 55 0 0.0 2.0 0.00 0.00 0.00 81 1009.4
20260901065018 55 0 0.0 3.0 0.00 0.00 0.00 80 1009.4
20260901064536 55 0 0.0 4.0 0.00 0.00 0.00 80 1009.6
20260901064016 55 0 0.0 4.0 0.00 0.00 0.00 79 1009.5
20260901063518 55 0 0.0 4.0 0.00 0.00 0.00 79 1009.5
20260901063034 55 0 0.0 3.0 0.00 0.00 0.00 80 1009.4
20260901062518 55 0 0.0 4.0 0.00 0.00 0.00 80 1009.4
20260901062026 54 0 0.0 5.0 0.00 0.00 0.00 80 1009.4
20260901061534 54 170 0.0 5.0 0.00 0.00 0.00 82 1009.5
20260901061017 54 0 0.0 0.0 0.00 0.00 0.00 83 1009.7
20260901060518 53 0 0.0 0.0 0.00 0.00 0.00 83 1009.6
20260901060032 53 0 0.0 0.0 0.00 0.00 0.00 83 1009.7
20260901055517 53 0 0.0 2.0 0.00 0.00 0.00 84 1009.7
20260901055022 52 0 0.0 2.0 0.00 0.00 0.00 85 1009.8
20260901054531 52 0 0.0 6.0 0.00 0.00 0.00 85 1009.8
20260901054024 51 0 0.0 7.0 0.00 0.00 0.00 85 1009.8
20260901053520 51 0 0.0 7.0 0.00 0.00 0.00 85 1009.9
20260901053053 51 0 0.0 2.0 0.00 0.00 0.00 85 1009.9
20260901052519 51 0 0.0 4.0 0.00 0.00 0.00 85 1010.0
20260901052015 51 0 0.0 4.0 0.00 0.00 0.00 84 1010.1
20260901051531 51 260 0.0 7.0 0.00 0.00 0.00 84 1010.1
20260901051018 51 0 0.0 7.0 0.00 0.00 0.00 84 1010.2
20260901050518 50 0 0.0 8.0 0.00 0.00 0.00 84 1010.5
20260901050031 50 0 0.0 8.0 0.00 0.00 0.00 84 1010.4
20260901045515 50 219 0.0 8.0 0.00 0.00 0.00 84 1010.5
20260901045016 50 226 0.0 4.0 0.00 0.00 0.00 84 1010.4
20260901044545 50 0 0.0 2.0 0.00 0.00 0.00 83 1010.4
20260901044019 50 0 0.0 2.0 0.00 0.00 0.00 83 1010.6
20260901043518 50 0 0.0 3.0 0.00 0.00 0.00 83 1010.8
20260901043038 50 0 0.0 3.0 0.00 0.00 0.00 83 1010.7
20260901042527 50 0 0.0 3.0 0.00 0.00 0.00 83 1010.6
20260901042024 51 0 0.0 2.0 0.00 0.00 0.00 83 1010.7
20260901041535 51 0 0.0 2.0 0.00 0.00 0.00 83 1010.7
20260901041017 51 0 0.0 0.0 0.00 0.00 0.00 83 1010.7
20260901040515 51 0 0.0 0.0 0.00 0.00 0.00 83 1010.7
20260901040032 51 0 0.0 7.0 0.00 0.00 0.00 83 1010.8
20260901035517 51 0 0.0 7.0 0.00 0.00 0.00 84 1011.0
20260901035015 50 0 0.0 7.0 0.00 0.00 0.00 83 1011.0
20260901034539 51 0 0.0 0.0 0.00 0.00 0.00 83 1010.9
20260901034016 51 0 0.0 0.0 0.00 0.00 0.00 83 1011.0
20260901033516 51 0 0.0 0.0 0.00 0.00 0.00 83 1011.1
20260901033039 51 0 0.0 0.0 0.00 0.00 0.00 83 1011.2
20260901032518 51 0 0.0 0.0 0.00 0.00 0.00 83 1011.2
20260901032018 51 0 0.0 0.0 0.00 0.00 0.00 83 1011.3
20260901031532 51 0 0.0 0.0 0.00 0.00 0.00 83 1011.3
20260901031016 51 0 0.0 0.0 0.00 0.00 0.00 83 1011.3
20260901030517 51 0 0.0 0.0 0.00 0.00 0.00 83 1011.4
20260901030033 51 0 0.0 0.0 0.00 0.00 0.00 83 1011.4
20260901025520 51 0 0.0 0.0 0.00 0.00 0.00 83 1011.4
20260901025019 51 0 0.0 0.0 0.00 0.00 0.00 83 1011.5
20260901024537 51 0 0.0 0.0 0.00 0.00 0.00 83 1011.6
20260901024019 51 0 0.0 2.0 0.00 0.00 0.00 83 1011.6
20260901023518 51 0 0.0 2.0 0.00 0.00 0.00 83 1011.7
20260901023034 51 0 0.0 0.0 0.00 0.00 0.00 83 1011.7
20260901022518 51 0 0.0 0.0 0.00 0.00 0.00 83 1011.6
20260901022019 50 0 0.0 3.0 0.00 0.00 0.00 83 1011.7
20260901021538 50 0 0.0 3.0 0.00 0.00 0.00 83 1011.7
20260901021016 50 0 0.0 1.0 0.00 0.00 0.00 82 1011.8
20260901020518 50 0 0.0 3.0 0.00 0.00 0.00 81 1011.7
20260901020055 51 0 0.0 4.0 0.00 0.00 0.00 80 1011.7
20260901015516 51 0 0.0 4.0 0.00 0.00 0.00 80 1011.9
20260901015017 51 0 0.0 4.0 0.00 0.00 0.00 82 1012.0
20260901014530 50 0 0.0 4.0 0.00 0.00 0.00 82 1011.9
20260901014016 50 0 0.0 7.0 0.00 0.00 0.00 83 1012.0
20260901013517 50 0 0.0 7.0 0.00 0.00 0.00 84 1012.0
20260901013041 49 0 0.0 1.0 0.00 0.00 0.00 83 1012.1
20260901012516 49 0 0.0 0.0 0.00 0.00 0.00 83 1012.1
20260901012019 49 0 0.0 0.0 0.00 0.00 0.00 82 1012.2
20260901011539 50 0 0.0 0.0 0.00 0.00 0.00 82 1012.1
20260901011018 50 0 0.0 0.0 0.00 0.00 0.00 83 1012.1
20260901010517 50 0 0.0 0.0 0.00 0.00 0.00 82 1012.0
20260901010032 50 0 0.0 0.0 0.00 0.00 0.00 82 1012.0
20260901005519 50 0 0.0 0.0 0.00 0.00 0.00 82 1012.1
20260901005017 50 0 0.0 0.0 0.00 0.00 0.00 82 1012.0
20260901004536 50 0 0.0 0.0 0.00 0.00 0.00 82 1012.0
20260901004019 50 0 0.0 2.0 0.00 0.00 0.00 83 1012.1
20260901003519 50 0 0.0 2.0 0.00 0.00 0.00 82 1012.0
20260901003036 50 0 0.0 0.0 0.00 0.00 0.00 83 1012.1
20260901002516 50 0 0.0 0.0 0.00 0.00 0.00 82 1012.2
20260901002018 50 0 0.0 0.0 0.00 0.00 0.00 82 1012.3
20260901001534 50 0 0.0 0.0 0.00 0.00 0.00 82 1012.2
20260901001016 50 0 0.0 0.0 0.00 0.00 0.00 81 1012.2
20260901000514 50 0 0.0 0.0 0.00 0.00 0.00 81 1012.3
20260901000039 50 0 0.0 0.0 0.00 0.00 0.00 81 1012.2
20260831235519 50 0 0.0 0.0 0.00 0.01 0.00 81 1012.2
20260831235018 50 0 0.0 0.0 0.00 0.01 0.00 81 1012.4
20260831234533 51 0 0.0 0.0 0.00 0.01 0.00 81 1012.3
20260831234019 50 0 0.0 1.0 0.00 0.01 0.00 80 1012.4
20260831233518 50 0 0.0 2.0 0.00 0.01 0.00 80 1012.3
20260831233043 50 0 0.0 2.0 0.00 0.01 0.00 80 1012.3
20260831232516 50 0 0.0 2.0 0.00 0.01 0.00 80 1012.4
20260831232015 51 249 0.0 4.0 0.00 0.01 0.00 80 1012.5
20260831231531 51 0 0.0 4.0 0.00 0.01 0.00 80 1012.5
20260831231016 51 250 0.0 0.0 0.00 0.01 0.00 80 1012.6
20260831230516 51 0 0.0 0.0 0.00 0.01 0.00 80 1012.6
20260831230032 51 0 0.0 0.0 0.00 0.01 0.00 80 1012.6
20260831225516 51 0 0.0 0.0 0.00 0.01 0.01 80 1012.6
20260831225017 51 0 0.0 0.0 0.00 0.01 0.01 80 1012.6
20260831224532 51 0 0.0 0.0 0.00 0.01 0.01 79 1012.6
20260831224015 52 0 0.0 0.0 0.00 0.01 0.01 79 1012.7
20260831223515 52 0 0.0 0.0 0.00 0.01 0.01 79 1012.6
20260831223034 52 0 0.0 0.0 0.00 0.01 0.01 79 1012.7
20260831222515 52 0 0.0 0.0 0.00 0.01 0.01 78 1012.7
20260831222016 52 0 0.0 0.0 0.00 0.01 0.01 77 1012.7
20260831221539 52 0 0.0 0.0 0.00 0.01 0.01 77 1012.8
20260831221016 52 0 0.0 0.0 0.00 0.01 0.01 77 1012.8
20260831220518 52 0 0.0 0.0 0.00 0.01 0.01 78 1012.8
20260831220036 52 0 0.0 0.0 0.00 0.01 0.01 77 1012.8
20260831215517 52 0 0.0 0.0 0.00 0.01 0.01 77 1012.8
20260831215017 52 0 0.0 0.0 0.00 0.01 0.01 77 1012.8
20260831214533 53 0 0.0 0.0 0.00 0.01 0.01 77 1012.7
20260831214017 53 0 0.0 0.0 0.00 0.01 0.01 76 1012.7
20260831213516 53 0 0.0 0.0 0.00 0.01 0.01 76 1012.6
20260831213038 53 0 0.0 1.0 0.00 0.01 0.01 76 1012.7
20260831212526 53 0 0.0 3.0 0.00 0.01 0.01 76 1012.5
20260831212020 53 0 0.0 4.0 0.00 0.01 0.01 76 1012.6
20260831211531 53 0 0.0 4.0 0.00 0.01 0.01 76 1012.6
20260831211017 53 0 0.0 3.0 0.00 0.01 0.01 76 1012.5
20260831210517 53 0 0.0 3.0 0.00 0.01 0.01 76 1012.5
20260831210036 53 0 0.0 3.0 0.00 0.01 0.01 76 1012.4
20260831205518 53 0 0.0 4.0 0.00 0.01 0.01 76 1012.5
20260831205018 53 0 0.0 5.0 0.00 0.01 0.01 76 1012.4
20260831204532 53 286 0.0 5.0 0.00 0.01 0.01 76 1012.3
20260831204021 53 0 0.0 4.0 0.00 0.01 0.01 77 1012.3
20260831203516 53 0 0.0 4.0 0.00 0.01 0.01 77 1012.2
20260831203032 53 0 0.0 2.0 0.00 0.01 0.01 77 1012.2
20260831202518 53 0 0.0 0.0 0.00 0.01 0.01 77 1012.2
20260831202017 53 0 0.0 0.0 0.00 0.01 0.01 76 1012.1
20260831201541 53 0 0.0 3.0 0.00 0.01 0.01 76 1012.1
20260831201023 53 0 0.0 3.0 0.00 0.01 0.01 76 1012.1
20260831200516 53 285 0.0 4.0 0.00 0.01 0.01 76 1011.9
20260831200040 53 0 0.0 8.0 0.00 0.01 0.01 76 1011.9
20260831195521 54 281 0.0 8.0 0.00 0.01 0.01 76 1011.9
20260831195020 54 290 1.0 8.0 0.00 0.01 0.01 76 1012.0
20260831194600 54 0 0.0 3.0 0.00 0.01 0.01 76 1012.0
20260831194018 54 0 0.0 3.0 0.00 0.01 0.01 76 1012.1
20260831193522 54 0 0.0 0.0 0.00 0.01 0.01 77 1012.1
20260831193040 55 0 0.0 0.0 0.00 0.01 0.01 77 1012.0
20260831192518 55 0 0.0 0.0 0.00 0.01 0.01 77 1012.0
20260831192018 55 0 0.0 0.0 0.00 0.01 0.01 77 1011.9
20260831191536 55 0 0.0 0.0 0.00 0.01 0.01 76 1011.9
20260831191019 55 0 0.0 0.0 0.00 0.01 0.01 77 1011.7
20260831190516 55 0 0.0 0.0 0.00 0.01 0.01 76 1011.7
20260831190032 56 0 0.0 0.0 0.00 0.01 0.01 76 1011.6
20260831185518 56 0 0.0 0.0 0.00 0.04 0.01 76 1011.6
20260831185017 56 0 0.0 0.0 0.00 0.04 0.01 76 1011.5
20260831184544 56 0 0.0 5.0 0.00 0.04 0.01 76 1011.4
20260831184015 56 0 0.0 5.0 0.00 0.04 0.01 76 1011.3
20260831183517 57 0 0.0 6.0 0.00 0.04 0.01 76 1011.2
20260831183038 57 0 0.0 6.0 0.00 0.04 0.01 76 1011.2
20260831182516 57 0 0.0 2.0 0.00 0.04 0.01 77 1011.1
20260831182017 57 0 0.0 0.0 0.00 0.04 0.01 77 1011.1
20260831181536 57 0 0.0 7.0 0.00 0.04 0.01 77 1011.2
20260831181018 57 0 0.0 7.0 0.00 0.04 0.01 77 1011.1
20260831180523 57 0 0.0 7.0 0.00 0.04 0.01 76 1011.0
20260831180035 58 0 0.0 7.0 0.00 0.04 0.01 77 1010.8
20260831175516 58 0 0.0 6.0 0.00 0.08 0.01 77 1010.8
20260831175016 58 288 0.0 11.0 0.00 0.08 0.01 76 1010.8
20260831174532 59 0 1.0 11.0 0.00 0.08 0.01 76 1010.7
20260831174016 59 0 0.0 9.0 0.00 0.08 0.01 76 1010.7
20260831173516 59 0 0.0 9.0 0.00 0.08 0.01 75 1010.5
20260831173050 59 0 0.0 3.0 0.00 0.08 0.01 76 1010.4
20260831172516 60 0 0.0 7.0 0.00 0.08 0.01 76 1010.3
20260831172018 60 275 0.0 9.0 0.00 0.08 0.01 75 1010.2
20260831171534 60 0 0.0 13.0 0.00 0.08 0.01 76 1010.2
20260831171016 60 284 1.0 13.0 0.00 0.08 0.01 76 1010.0
20260831170516 60 0 0.0 7.0 0.00 0.08 0.01 76 1009.9
20260831170037 60 286 0.0 9.0 0.00 0.08 0.01 76 1009.9
20260831165519 60 0 1.0 9.0 0.00 0.08 0.01 77 1009.9
20260831165015 60 300 0.0 7.0 0.00 0.08 0.01 77 1009.9
20260831164536 60 0 0.0 6.0 0.00 0.08 0.01 77 1009.9
20260831164017 60 0 0.0 4.0 0.00 0.08 0.01 77 1009.9
20260831163519 60 0 0.0 8.0 0.00 0.08 0.01 77 1009.8
20260831163031 61 0 0.0 10.0 0.00 0.08 0.01 76 1009.8
20260831162521 61 0 0.0 10.0 0.00 0.08 0.01 75 1009.8
20260831162017 62 345 1.0 10.0 0.00 0.08 0.01 73 1009.7
20260831161536 62 0 0.0 10.0 0.00 0.08 0.01 72 1009.6
20260831161020 63 309 0.0 7.0 0.00 0.08 0.01 72 1009.5
20260831160515 63 0 1.0 11.0 0.00 0.08 0.01 72 1009.5
20260831160032 63 285 1.0 11.0 0.00 0.08 0.01 73 1009.4
20260831155519 62 0 0.0 9.0 0.00 0.08 0.01 71 1009.3
20260831155018 62 0 0.0 11.0 0.00 0.08 0.01 70 1009.2
20260831154601 63 288 1.0 11.0 0.00 0.08 0.01 70 1009.1
20260831154023 63 360 1.0 8.0 0.00 0.08 0.01 71 1009.0
20260831153521 64 0 0.0 7.0 0.00 0.08 0.01 71 1009.0
20260831153036 64 0 0.0 4.0 0.00 0.08 0.01 70 1008.9
20260831152516 64 0 0.0 4.0 0.00 0.08 0.01 70 1008.8
20260831152021 64 0 0.0 10.0 0.00 0.08 0.01 71 1008.7
20260831151533 64 0 0.0 10.0 0.00 0.08 0.01 71 1008.6
20260831151020 63 291 1.0 10.0 0.00 0.08 0.01 73 1008.5
20260831150518 63 0 0.0 7.0 0.00 0.08 0.01 73 1008.5
20260831150034 62 0 0.0 3.0 0.00 0.08 0.01 75 1008.5
20260831145517 62 0 0.0 10.0 0.00 0.08 0.01 75 1008.4
20260831145017 62 0 0.0 10.0 0.00 0.08 0.01 75 1008.5
20260831144546 62 0 0.0 8.0 0.00 0.08 0.01 74 1008.5
20260831144015 62 0 0.0 11.0 0.00 0.08 0.01 74 1008.5
20260831143517 62 0 0.0 11.0 0.00 0.08 0.01 73 1008.5
20260831143041 62 0 1.0 12.0 0.00 0.08 0.01 73 1008.5
20260831142516 63 0 1.0 12.0 0.00 0.08 0.01 72 1008.5
20260831142019 63 296 1.0 9.0 0.00 0.08 0.01 71 1008.5
20260831141535 63 264 0.0 8.0 0.00 0.08 0.01 71 1008.4
20260831141019 64 0 1.0 10.0 0.00 0.08 0.01 71 1008.3
20260831140518 64 302 0.0 10.0 0.00 0.08 0.01 72 1008.2
20260831140035 64 0 0.0 9.0 0.00 0.08 0.01 71 1008.1
20260831135517 64 0 0.0 8.0 0.00 0.08 0.01 71 1008.2
20260831135021 64 279 0.0 8.0 0.00 0.08 0.01 71 1008.1
20260831134532 64 288 1.0 8.0 0.00 0.08 0.01 70 1007.9
20260831134022 65 306 0.0 10.0 0.00 0.08 0.01 72 1008.0
20260831133518 64 0 0.0 10.0 0.00 0.08 0.01 72 1007.9
20260831133032 64 296 2.0 10.0 0.00 0.08 0.01 71 1007.8
20260831132518 64 270 0.0 10.0 0.00 0.08 0.01 72 1007.8
20260831132016 64 279 1.0 10.0 0.00 0.08 0.01 72 1007.7